sat.trackr.live / text

‹ back to catalog

STARLINK-34807

NORAD 65028 · 2025-161P

PAYLOAD ACTIVE UNKNOWN

§ Identity

Operator
Country
US
Launch date
2025-07-30
Launch site
AFWTR
Launch vehicle
Mass (kg)
RCS (m²)

Purposes: comms

External: N2YO · Heavens-Above · Gunter

§ Orbital elements

Epoch: 2026-05-24T15:31:05.568672Z

Period
94.11 min
Inclination
53.1587°
Eccentricity
0.0000829
Mean motion
15.30198524 rev/d
Perigee alt
474.7 km
Apogee alt
475.8 km
Semi-major
6,853.4 km
B*
7.0499e-4
RAAN
301.0699°
Arg perigee
76.1688°
Mean anomaly
283.9406°
Rev number
4,696

§ Raw data

STARLINK-348071 65028U 25161P   26144.64659223  .00020578  00000+0  70499-3 0  99932 65028  53.1587 301.0699 0000829  76.1688 283.9406 15.30198524 46960

JSON: /api/v1/satellites/65028 · /tle

For live sub-satellite position, see the globe view (requires WebGL).

§ Visibility from observer

Set your observer location to see the next 7 days of passes ≥ 10°. The values pass through the URL so the page stays shareable.

No JS? Fill the form by hand. The geolocation button needs JavaScript.